www.pogodaiklimat.ru

ПОГОДА в Пойнт-Лее, AK

  • Прогноз погоды в Пойнт-Лее
  • Монитор погоды в Пойнт-Лее
  • Климат в Пойнт-Лее

АРХИВ ПОГОДЫ в Пойнт-Лее

Время (UTC), дата Ветер
(напр.,м/с)
 
Видим.   Явления Облачность Т
(С)
Тd
(С)
f
(%)
Тe
(С)
Тes
(С)
Комфортность

P
(гПа)

Po
(гПа)
Тmin
(С)
Tmax
(С)
R
(мм)
SD
(см)
04:15 23.03 В  17
{21} 
800 м  слабый снег, переохлажденный туман  10/10 210 м  -18.0  -19.0  92  -35  -35  опасность
обморожения 
  1006.4         
04:30 23.03 СВ  18
{21} 
400 м  снег, переохлажденный туман  10/10 210 м  -17.0  -19.0  84  -34  -34  опасность
обморожения 
  1006.0         
05:07 23.03 В  14
{18} 
800 м  слабый снег, переохлажденный туман  10/10 210 м  -17.0  -19.0  84  -32  -32  опасность
обморожения 
  1006.7         
05:22 23.03 СВ  15  3 км  слабый снег, дымка  10/10 210 м  -17.0  -19.0  84  -32  -32  опасность
обморожения 
  1006.4         
05:39 23.03 СВ  14  6 км  слабый снег, дымка  10/8 210 м
[средняя] 
-17.0  -19.0  84  -32  -32  опасность
обморожения 
  1006.0         
05:56 23.03 В  13  4 км  слабый снег, дымка  10/8 210 м
[средняя] 
-17.2  -18.9  87  -32  -32  опасность
обморожения 
1008.0  1006.4         
06:00 23.03 СВ  14  5 км  слабый снег, дымка  8/5 210 м
[средняя] 
-17.0  -19.0  84  -32  -32  опасность
обморожения 
  1006.0         
06:56 23.03 СВ  13  13 км    2/0 2100 м
[средняя] 
-17.8  -19.4  87  -33  -33  опасность
обморожения 
1006.9  1005.4         
07:56 23.03 СВ  10  16 км    8/8 1290 м  -17.2  -19.4  83  -31  -31  опасность
обморожения 
1007.7  1006.4         
08:56 23.03 СВ  11  13 км    ясно  -17.8  -19.4  87  -32  -32  опасность
обморожения 
1007.1  1005.7         
09:56 23.03 СВ  16 км    10/10 1440 м  -17.2  -18.9  87  -30  -30    1007.3  1006.0         
10:56 23.03 СВ  16 км    10/10 1320 м  -16.7  -18.3  87  -29  -29    1007.5  1006.0  -17.8  -16.7     
11:56 23.03 СВ  16 км    10/10 1200 м  -16.1  -17.8  87  -27  -27    1007.1  1005.7         
13:56 23.03 СВ  16 км    10/10 1020 м  -16.7  -18.3  87  -28  -28    1007.1  1005.7         
14:56 23.03 СВ  16 км    ясно  -17.8  -19.4  87  -28  -28    1007.3  1005.7         
15:56 23.03 СВ  16 км    8/8 960 м  -17.8  -19.4  87  -26  -26    1007.6  1006.0         
16:56 23.03 СВ  16 км    10/10 960 м  -16.1  -17.8  87  -25  -25    1007.6  1006.0  -17.8  -16.1     
17:56 23.03 С  16 км    8/8 960 м  -13.3  -14.4  91  -21  -21    1007.5  1006.0         
18:56 23.03 СВ  16 км    ясно  -12.2  -13.9  87  -20  -20    1007.5  1006.0         
19:56 23.03 С  16 км    ясно  -12.2  -13.3  91  -19  -18    1007.8  1006.4         
20:56 23.03 С  16 км    5/0 2850 м
[средняя] 
-11.7  -12.8  92  -21  -20    1008.0  1006.7         
21:56 23.03 СВ  16 км    ясно  -11.1  -12.2  92  -20  -19    1008.2  1006.7         
22:56 23.03 СВ  16 км    ясно  -10.6  -11.7  92  -20  -19    1007.6  1006.0  -16.1  -10.6     
23:56 23.03 СВ  16 км    ясно  -9.4  -10.6  91  -18  -17    1007.4  1006.0         
00:56 24.03 СВ  16 км    ясно  -8.3  -9.4  92  -16  -14    1007.4  1006.0         
01:56 24.03 СВ  16 км    ясно  -8.3  -9.4  92  -17  -17    1007.1  1005.7         
02:56 24.03 СВ  16 км    2/0 3000 м
[средняя] 
-8.9  -10.0  92  -18  -18    1006.9  1005.4         
03:56 24.03 СВ  16 км    8/0 2700 м
[средняя] 
-9.4  -10.6  91  -18  -18    1007.1  1005.7         
05:56 24.03 СВ  16 км    10/10 1800 м  -10.6  -11.7  92  -18  -18    1007.4  1006.0         
06:56 24.03 СВ  16 км    10/8 1950 м
[средняя] 
-9.4  -10.6  91  -17  -17    1007.4  1006.0         
07:56 24.03 СВ  16 км    8/8 1950 м  -10.0  -11.1  92  -17  -17    1007.5  1006.0         
08:56 24.03 ЮВ  16 км    10/10 1800 м  -9.4  -10.6  91  -16  -16    1007.6  1006.0         
09:56 24.03 Ю  16 км    10/10 1650 м  -9.4  -10.6  91  -16  -16    1008.0  1006.7         
10:56 24.03 Ю  16 км    10/8 1800 м
[средняя] 
-8.9  -10.0  92  -14  -14    1007.9  1006.4  -10.6  -8.9     
11:56 24.03 Ю  16 км    8/8 1230 м  -8.3  -10.0  88  -15  -15    1007.8  1006.4         
12:56 24.03 Ю  16 км    ясно  -9.4  -10.6  91  -17  -17    1007.8  1006.4         
13:56 24.03 ЮВ  16 км    10/10 1650 м  -7.2  -8.3  92  -13  -13    1008.0  1006.4         
14:56 24.03 В  16 км    10/8 1080 м
[средняя] 
-7.8  -8.9  92  -14  -14    1008.2  1006.7         
15:56 24.03 ЮВ  16 км    10/10 1200 м  -7.2  -8.3  92  -14  -14    1008.4  1007.1         
16:31 24.03 ЮВ  11 км  слабый снег  10/10 870 м  -6.0  -7.0  93  -12  -12      1006.7         
16:38 24.03 В  14 км  слабый снег  10/10 870 м  -6.0  -7.0  93  -12  -12      1006.7         
16:45 24.03 В  13 км  слабый снег  10/10 870 м  -6.0  -7.0  93  -13  -13      1006.7         
16:53 24.03 В  3 км  слабый снег, дымка  10/10 390 м  -5.0  -7.0  86  -12  -12      1006.7         
16:56 24.03 В  2 км  слабый снег, дымка  10/10 390 м  -5.0  -6.7  88  -11  -11    1008.1  1006.7  -9.4  -5.0     
17:09 24.03 В  5 км  слабый снег, дымка  10/10 450 м  -4.0  -6.0  86  -10  -10      1006.4         
17:21 24.03 В  14 км  слабый снег  10/10 450 м  -4.0  -6.0  86  -11  -11      1006.4         
17:56 24.03 В  16 км    10/10 450 м  -5.0  -6.1  92  -12  -12    1007.6  1006.0         
18:56 24.03 В  16 км    10/2 1260 м
[средняя] 
-3.3  -4.4  92  -10  -10    1007.3  1006.0         

 

Местоположение метеостанции Point Lay LRRS Airport: широта 69.7167 долгота -163.0000 высота над уровнем моря 8 м.

В архиве по умолчанию представлена погода в Пойнт-Лее за последние 1-2 суток. Обновление информации о фактической погоде в базе происходит ежечасно! Архивные данные за месяц целиком и за предыдущие месяцы Вы можете получить, выбрав интересующий диапазон дат из раскрывающегося списка и нажав кнопку "Ввод!".

Внимание! Архив погоды МЕТАР в базе сайта хранится не более 60 дней. Нет смысла пытаться выбрать более раннюю дату.

Внимание! Время в таблицах - всемирное. Для получения местного времени необходимо прибавить поправку, которая в Пойнт-Лее равна -9 ч.

Ветер - указаны скорость ветра в м/с и направление, откуда дует ветер: С - северный, СВ - северо-восточный, В - восточный, ЮВ - юго-восточный, Ю - южный, ЮЗ - юго-западный, З - западный, СЗ - северо-западный.
Видимость - горизонтальная дальность видимости в метрах или километрах. При видимости от 1 до 10 км при отсутствии осадков обычно наблюдается дымка, при ухудшении видимости до 1 км и менее - туман. В сухую погоду видимость может ухудшаться дымом, пылью или мглою.
Атмосферные явления - указаны явления, наблюдавшиеся в указанный момент времени.
Облачность - указаны через наклонную черту верхняя и нижняя облачность в баллах и высота нижней границы облаков в метрах. Внимание: облачность, как и прочие метеорологические величины в США измеряются автоматическими метеостанциями. Указанные значения в баллах носят условный характер и показывают процент времени, в течение которого, в среднем, лазерный луч высотомера отражался от облаков обратно.
T - Температура воздуха - температура, измеренная на высоте 2 м над землей.
Td - Температура точки росы - температура, при понижении до которой содержащийся в воздухе водяной пар достигнет насыщения.
f - Относительная влажность воздуха - влажноcть воздуха, измеренная на высоте 2 м над землей.
Te - Эффективная температура - температура, которую ощущает одетый по сезону человек в тени. Характеристика душности погоды. При расчете учитывается влияние влажности воздуха и скорости ветра на теплоощущения человека.
Tes - Эффективная температура на солнце - температура, которую ощущает человек, с поправкой на солнечный нагрев. Характеристика знойности погоды. Зависит от высоты солнца над горизонтом, облачности и скорости ветра. Ночью, в пасмурную погоду, а также при ветре 12 м/с и более поправка равна нулю.
P - Атмосферное давление - приведенное к уровню моря атмосферное давление.
Po - Атмосферное давление - измеренное на уровне метеостанции атмосферное давление.
Tmin - Минимальная температура - минимум температуры воздуха на высоте 2 м над землей.
Tmax - Максимальная температура - максимум температуры воздуха на высоте 2 м над землей.
R - Количество осадков - Количество выпавших осадков за 3 или 6 часов, мм.
SD - Снежный покров - Высота снежного покрова, см.